This is the latest recevied weather packets stored in our database for station/object EA1IOK-13. If no packets are shown the sender has not sent any weather packets the latest 10 day(s).
| Time | Temp. | Humidity | Pressure | Rain* | Wind** | Luminosity | Snow |
|---|---|---|---|---|---|---|---|
| 1777676589 | 14.44° C | 84% | 1017.9 hPa | 0 mm | - | - | - |
| 1777675688 | 14.44° C | 83% | 1018 hPa | 0 mm | - | - | - |
| 1777672988 | 14.44° C | 83% | 1017.9 hPa | 0 mm | - | - | - |
| 1777672088 | 15° C | 82% | 1018.1 hPa | 0 mm | - | - | - |
| 1777670288 | 15° C | 81% | 1018.1 hPa | 0 mm | - | - | - |
| 1777668489 | 15.56° C | 80% | 1017.9 hPa | 0 mm | - | - | - |
| 1777666687 | 16.11° C | 79% | 1017.7 hPa | 0 mm | - | - | - |
| 1777665788 | 16.11° C | 79% | 1017.7 hPa | 0 mm | - | - | - |
| 1777664887 | 16.67° C | 78% | 1017.3 hPa | 0 mm | - | - | - |
| 1777663089 | 17.78° C | 76% | 1016.8 hPa | 0 mm | - | - | - |
| 1777662189 | 18.33° C | 74% | 1016.7 hPa | 0 mm | - | - | - |
| 1777661289 | 18.89° C | 73% | 1016.6 hPa | 0 mm | - | - | - |
| 1777660387 | 19.44° C | 71% | 1016.5 hPa | 0 mm | - | - | - |
| 1777659487 | 20° C | 69% | 1016.3 hPa | 0 mm | - | - | - |
| 1777658589 | 20° C | 69% | 1016.4 hPa | 0 mm | - | - | - |
| 1777657688 | 20° C | 68% | 1016.3 hPa | 0 mm | - | - | - |
| 1777656789 | 20.56° C | 68% | 1016.2 hPa | 0 mm | - | - | - |
| 1777655889 | 20.56° C | 65% | 1016.3 hPa | 0 mm | - | - | - |
| 1777654989 | 20.56° C | 66% | 1016.3 hPa | 0 mm | - | - | - |
| 1777654089 | 21.11° C | 66% | 1016.2 hPa | 0 mm | - | - | - |
| 1777652288 | 21.11° C | 64% | 1016.2 hPa | 0 mm | - | - | - |
| 1777651389 | 21.11° C | 62% | 1016.3 hPa | 0 mm | - | - | - |
| 1777650489 | 21.11° C | 64% | 1016.4 hPa | 0 mm | - | - | - |
| 1777649589 | 21.11° C | 62% | 1016.5 hPa | 0 mm | - | - | - |
| 1777648690 | 20.56° C | 63% | 1016.6 hPa | 0 mm | - | - | - |
* Rain latest hour (hover to see other rain measurements)
** Current wind speed in m/s (hover to see current wind gust speed)